map of CUN home
CUN - Airport
Location
City:  Cancún, Quintana Roo, México
Name:Cancún International Airport
ICAO:MMUN
IATA:CUN

Details
Type:Airport (Aerodrome, Airfield)
Use:Public/Civil, International (customs port of entry)
Latitude:21°02'12"N (21.036528)
Longitude:86°52'37"W (-86.877082)
Datum:WGS 1984
Elevation:20 ft (6 m)
Variation:1.77°W (WMM2015 magnetic declination)
-0.13° annual change
Runways:1
Longest:11483 × 197 ft (3500 × 60 m), paved

Time
Time Zone:UTC-5
Local Time:

Weather
METAR:MMUN 231245Z 25004KT 7SM SKC 17/15 A2983 RMK SC
TAF:MMUN 222308Z 2300/2406 32015G25KT P6SM SCT018 TX28/2320Z TN19/2312Z
BECMG 2303/2304 BKN015 PROB40 2310/2314 4SM -RA
FM231600 35012KT P6SM SCT018
BECMG 2402/2403 36006KT

Related Locations
Nearby:
Farthest:CCK: 11776 mi / 18952 km
West Island (Pulau Panjang) [Cocos (Keeling) Islands], CC

Find:

   beyond  
but within

Other Information
Maps:
NOTAMs:
Links:
Sources:

  
flag of México
flag of Quintana Roo
  

Sectional Chart

Flight Planning
at skyvector.com

Satellite Image

Google Maps Satellite view

 

Copyright © 2004-2017 Karl L. Swartz. All rights reserved.
The Great Circle Mapper name and logo are trademarks of the Great Circle Mapper.
All other trademarks mentioned herein belong to their respective owners.
Please see credits for attibutions and further copyright information.

  Follow gcmap on Facebook Follow gcmap on Twitter Follow gcmap on Google+ GCmap on LinkedIn

hCard Microformat

Geo Microformat